Location: Bernay
(48.6766°N, 2.9386°E)
Time: 21:54:35
(UTC+00:00)

Cosmos 676 Rocket - Pass Details

Date: 12 January 2026
Orbit: 750 x 779 km, 74.0° (Epoch: 17 February)

Event Time Altitude Azimuth Distance (km) Brightness Sun altitude
Rises 17:13:04 0° 338° (NNW) 3,214 7.2 -9.2°
Reaches altitude 10° 17:15:28 10° 342° (NNW) 2,288 6.4 -9.6°
Maximum altitude 17:20:36 63° 64° (ENE) 844 4.0 -10.4°
Drops below altitude 10° 17:25:45 10° 146° (SE) 2,288 6.3 -11.1°
Sets 17:28:09 0° 149° (SSE) 3,214 7.1 -11.5°
